{"data":{"norad_id":61848,"epoch":"2026-05-25T01:06:32.827392Z","epoch_age_seconds":61160,"freshness":"FRESH","line1":"1 61848U 24202D   26145.04621328 -.00001283  00000+0 -37137-4 0  9991","line2":"2 61848  43.0015 155.6712 0001266 271.7601  88.3105 15.27567112 87139","mean_motion":15.27567112,"eccentricity":0.0001266,"inclination_deg":43.0015,"raan_deg":155.6712,"arg_perigee_deg":271.7601,"mean_anomaly_deg":88.3105,"bstar":-3.7137e-5,"rev_number":8713,"period_min":94.267544037044,"perigee_km":482.21905657396,"apogee_km":483.95631866487,"semimajor_km":6861.2246876194,"source":"CELESTRAK","updated_at":"2026-05-25T13:38:19.449936Z"}}